AirNav   Air Wisconsin Up To $57,000 Bonus
 
 1497 users online  

68S Davenport Airport
Davenport, Washington, USA

GOING TO DAVENPORT?


FAA INFORMATION EFFECTIVE 07 OCTOBER 2021

Location

FAA Identifier: 68S
Lat/Long: 47-39-07.4160N 118-10-25.5860W
47-39.123600N 118-10.426433W
47.6520600,-118.1737739
(estimated)
Elevation: 2426.9 ft. / 739.7 m (surveyed)
Variation: 20E (1985)
From city: 1 mile W of DAVENPORT, WA
Time zone: UTC -7 (UTC -8 during Standard Time)
Zip code: 99122

Airport Operations

Airport use: Open to the public
Activation date: 12/1945
Control tower: no
ARTCC: SEATTLE CENTER
FSS: SEATTLE FLIGHT SERVICE STATION
NOTAMs facility: SEA (NOTAM-D service available)
Attendance: ON CALL
Wind indicator: lighted
Segmented circle: no
Beacon: white-green (lighted land airport)
Operates sunset to sunrise.

Airport Communications

CTAF: 122.9

Nearby radio navigation aids

VOR radial/distance  VOR name  Freq  Var
GEGr262/22.7SPOKANE VORTAC115.5021E

 
NDB name  Hdg/Dist  Freq  Var  ID
DEER PARK222/35.636516EDPY -.. .--. -.--

Airport Services

Fuel available: 100LL
100LL:FUEL 24 HR CREDIT CARD SVC AVBL.
Parking: tiedowns
Airframe service: NONE
Bottled oxygen: NONE
Bulk oxygen: NONE

Runway Information

Runway 6/24

Dimensions: 3260 x 60 ft. / 994 x 18 m
Surface: asphalt, in fair condition
Runway edge lights: medium intensity
Runway edge markings: MARKINGS ARE FADED.
RUNWAY 6  RUNWAY 24
Latitude: 47-39.046833N47-39.200333N
Longitude: 118-10.806667W118-10.046167W
Elevation: 2414.5 ft.2424.0 ft.
Traffic pattern: leftright
Runway heading: 053 magnetic, 073 true233 magnetic, 253 true
Markings: basic, in poor conditionbasic, in poor condition
Touchdown point: yes, no lightsyes, no lights
Obstructions: none37 ft. tree, 1001 ft. from runway, 21:1 slope to clear

Airport Ownership and Management from official FAA records

Ownership: Publicly-owned
Owner: CITY OF DAVENPORT
PO BOX 26
DAVENPORT, WA 99122
Phone 509-725-4352
Manager: STEVE GOEMMEL
P.O. BOX 26
DAVENPORT, WA 99122
Phone 509-725-4352
SJGOEMMEL@CENTURYTEL.NET

Airport Operational Statistics

Aircraft based on the field: 18
Single engine airplanes: 16
Ultralights: 2
    
Aircraft operations: avg 134/week *
71% local general aviation
29% transient general aviation
* for 12-month period ending 31 December 2018

Additional Remarks

MON-FRI 8:00 AM TO 5:00 PM, CALL OFFICE NUMBER, 509-725-4352. AFTER HOURS CALL 509-721-0069.
FOR CD CTC SPOKANE APCH AT 509-742-2522

Instrument Procedures

There are no published instrument procedures at 68S.

Some nearby airports with instrument procedures:

KSKA - Fairchild Air Force Base (21 nm E)
2S8 - Wilbur Airport (24 nm W)
KGEG - Spokane International Airport (26 nm E)
KSFF - Felts Field Airport (34 nm E)
KDEW - Deer Park Airport (35 nm NE)
 
Loc | Ops | Rwys | IFR | FBO | Links
Com | Nav | Svcs | Stats | Notes
Area around 68S (Davenport Airport)
 
Road maps at: MapQuest Bing Google
 
Aerial photo
WARNING: Photo may not be current or correct
Aerial photo of 68S (Davenport Airport)
Photo by David Wyatt
Photo taken 22-Jun-2007
looking northeast down runway 5

Do you have a better or more recent aerial photo of Davenport Airport that you would like to share? If so, please send us your photo.

 
Sectional chart

 
Airport distance calculator
Flying to Davenport Airport? Find the distance to fly.

From to 68S

Sunrise and sunset
Times for 21-Oct-2021
 Local
(UTC-7)
 Zulu
(UTC)
Morning civil twilight06:5013:50
Sunrise07:2114:21
Sunset17:5300:53
Evening civil twilight18:2501:25

Current date and time
Zulu (UTC)  21-Oct-2021 15:13:47
Local (UTC-7)  21-Oct-2021 08:13:47
 
METAR
KSKA 
21nm E 
211458Z 06010KT 10SM OVC060 07/07 A3008 RMK AO2A SLP198 T00710070 51006 $
KGEG 
26nm E 
211453Z 05006KT 10SM BKN065 BKN140 BKN200 07/05 A3010 RMK AO2 SLP196 T00720050 53004
KSFF 
35nm E 
211453Z 00000KT 10SM OVC070 09/07 A3011 RMK AO2 SLP200 T00890067 53004
KDEW 
35nm NE 
211453Z AUTO 02008KT 10SM OVC060 07/04 A3012 RMK AO2 SLP212 T00670039 53006
TAF
KSKA 
21nm E 
211100Z 2111/2217 VRB06KT 9999 BKN070 OVC090 620705 QNH3007INS BECMG 2116/2117 09008KT 9999 SCT100 QNH2984INS BECMG 2206/2207 09009KT 9999 SCT070 BKN090 620909 QNH2982INS BECMG 2210/2211 16009KT 9999 -RA BKN030 OVC050 620709 QNH2973INS TX18/2123Z TN03/2115Z
KGEG 
26nm E 
211139Z 2112/2212 08006KT P6SM BKN090 FM211600 07006KT P6SM FEW120 BKN250 FM220700 07009KT P6SM VCSH BKN070 OVC100 FM221000 08008KT P6SM -RA OVC050
NOTAMs
Click for the latest NOTAMs
NOTAMs are issued by the DoD/FAA and will open in a separate window not controlled by AirNav.

 

 
 

FBO, Fuel Providers, and Aircraft Ground Support

  
 Business Name 
 
 Contact 
 
 Services / Description 
 
Fuel Prices
 
Comments
  
 Davenport Municipal Airport
509-725-4352
509-725-0152
[web site]
[email]
Aviation fuel, Aircraft parking (ramp or tiedown), Hangar leasing / sales, Courtesy transportation, Pilots lounge / snooze room, Public telephone, Computerized weather, ...
 
Courtesy car  
 
More info about Davenport Municipal Airport
independent
100LL
SS $6.25 
 Updated 15-Oct-2021
 
   write
SS=Self service
Update Fuel Prices
 

Would you like to see your business listed on this page?

 If your business provides an interesting product or service to pilots, flight crews, aircraft, or users of the Davenport Airport, you should consider listing it here.  To start the listing process, click on the button below
 
Add a business
 

Other Pages about Davenport Airport

www.davenportwa.us/index.asp?SEC=13D2F483-532F-4112-A9DB-75D4B32F90A1&Type=B_BASIC
 
Update a link
 
Copyright © AirNav, LLC. All rights reserved. Privacy Policy  Contact